User: anonymous   Login
Location: Unspecified
(0.0000°N, 0.0000°E)
Time: 06:57:55
(UTC+00:00)
Language:

Aussat K2 - Orbit

View from above orbital plane
View from above orbital plane
View from above satellite
View from above satellite

Ground track
Ground track

The orbit data is extracted from the following two-line orbital elements,

1 16275U 85109C   17115.91495819 -.00000016 +00000-0 +00000-0 0  9993
2 16275 015.1912 009.0801 0005843 256.1677 349.5396 00.99932406104707
Epoch (UTC): 25 April 2017 21:57:32
Eccentricity: 0.0005843
inclination: 15.1912°
perigee height: 35857 km
apogee height: 35906 km
right ascension of ascending node: 9.0801°
argument of perigee: 256.1677°
revolutions per day: 0.99932406
mean anomaly at epoch: 349.5396°
orbit number at epoch: 10470

The dashed part of the orbit path shows where the satellite is in the earth's shadow,  

DLR